Regional Weather Roundup
Issued by NWS

Home | Current Version | Previous Version | Text Only | Print | Product List | Glossary Off
Versions: 1 2 3 4 5 6 7 8 9 10 11 12 13 14 15 16 17 18 19 20 21 22 23 24 25 26 27 28 29 30 31 32 33 34 35 36 37 38 39 40 41 42 43 44 45 46 47 48 49 50

000
ASUS43 KMPX 251301
RWRMN
WEATHER ROUNDUP FOR MINNESOTA
NATIONAL WEATHER SERVICE TWIN CITIES/CHANHASSEN MN
700 AM CST SUN JAN 25 2015


NOTE: "FAIR" INDICATES FEW OR NO CLOUDS BELOW 12,000 FEET WITH NO
SIGNIFICANT WEATHER AND/OR OBSTRUCTIONS TO VISIBILITY. N/A MEANS
CURRENT SKY AND/OR WEATHER CONDITIONS ARE NOT AVAILABLE.

MNZ060>063-068>070-251400-
   Twin Cities Metro

CITY           SKY/WX    TMP DP  RH WIND       PRES   REMARKS
TWIN CITIES    MOCLDY    22  14  71 N15       29.92R WCI   9
ST PAUL        MOCLDY    22  14  71 NE10      29.94R WCI  11
CRYSTAL        MOCLDY    22  14  71 N12       29.93R WCI  10
BLAINE         MOCLDY    21  16  79 NE10      29.93R WCI  10
LAKEVILLE      CLOUDY    25  19  80 N10       29.90R WCI  15
EDEN PRAIRIE   MOCLDY    23  15  71 N14       29.90R WCI  11
SOUTH ST PAUL  CLOUDY    24  16  70 N8        29.92R WCI  16
LAKE ELMO      CLOUDY    23  14  68 NE9G18    29.93R WCI  13
$$
MNZ001>005-007-008-013>017-022>024-027-028-251400-
   Northwest Minnesota

CITY           SKY/WX    TMP DP  RH WIND       PRES   REMARKS
BEMIDJI        CLOUDY    15  10  79 N5        29.96R WCI   7
HALLOCK        CLOUDY    10   3  72 CALM      30.03R
ROSEAU         CLOUDY    10   3  72 NE8       30.02R WCI  -1
WARROAD        CLOUDY     9   3  78 NE8       30.02R WCI  -4
THIEF RVR FALL CLEAR     10   5  79 E5        29.98S WCI   2
CROOKSTON      CLEAR     12   9  85 CALM      30.02R
FOSSTON        CLEAR      9   3  78 CALM      29.97R
DETROIT LAKES  FAIR      21  18  86 CALM      29.93R
MOORHEAD       CLOUDY    21  18  86 N10       29.99R WCI  10
PARK RAPIDS    CLOUDY    22  13  68 NE3       29.92R
MAHNOMEN       FAIR      16  11  81 N8        29.94R WCI   5
$$
MNZ006-009>011-018-025>026-251400-
   North Central Minnesota

CITY           SKY/WX    TMP DP  RH WIND       PRES   REMARKS
BAUDETTE       CLOUDY     7  -2  66 E7        29.99R WCI  -5
FLAG ISLAND    PTCLDY     7   0  72 E3        30.01F
INTL FALLS     CLOUDY     2  -5  72 E8        30.01S WCI -12
WASKISH        CLOUDY     9   3  78 CALM      29.98F
BIG FORK       CLOUDY    12   3  67 N5        29.98R WCI   4
LONGVILLE      CLOUDY    21  16  79 E3        29.94R
GRAND RAPIDS   CLOUDY    19  12  73 SE3       29.95R
CRANE LAKE     MOCLDY     0  -6  78 CALM      30.05S
ORR            CLOUDY     5  -4  66 CALM      29.97S
COOK           CLOUDY     5   0  78 CALM      29.98F
WALKER         CLOUDY    18  11  75 NE3       29.93S
$$
MNZ012-019>021-037-251400-
   Northeast Minnesota

CITY           SKY/WX    TMP DP  RH WIND       PRES   REMARKS
DULUTH         FLURRIES  17  12  80 NE9       29.95R WCI   6
ELY            MOCLDY    -4  -8  84 CALM      30.00R
HIBBING        CLOUDY    15   6  67 NE6       29.97R WCI   6
EVELETH        CLOUDY    12   7  79 NE5       29.98R WCI   4
DULUTH HARBOR  CLOUDY    21  18  86 NE17      30.01R WCI   7
TWO HARBORS    FLURRIES  19  12  73 NE5       29.97R WCI  13
SILVER BAY     LGT SNOW  16  10  79 N3        29.99R
GRAND MARAIS     N/A      4  -8  57 N3        30.09R
G MARAIS ARPRT PTCLDY    -8 -15  71 N8        29.96R WCI -23
$$
MNZ029>031-032-039>041-046>048-054>057-064-251400-
   West Central Minnesota

CITY           SKY/WX    TMP DP  RH WIND       PRES   REMARKS
FERGUS FALLS   CLOUDY    23  21  93 CALM      29.96S
WHEATON        CLOUDY    21  19  93 NW8       29.98R WCI  12
MORRIS         CLOUDY    30  28  93 NW9       29.92R WCI  22
ALEXANDRIA     CLOUDY    28  23  81 NE7       29.92R WCI  21
ELBOW LAKE     MOCLDY    26  23  90 CALM      29.92S
WADENA         CLOUDY    21  18  86 NE3       29.92R
GLENWOOD       CLOUDY    27  23  86 E7        29.92R WCI  19
APPLETON       CLOUDY    30  28  93 N12       29.93R WCI  21
BENSON         CLOUDY    30  25  80 E6        29.93R WCI  24
ORTONVILLE     CLOUDY    27  25  93 N8        29.94R WCI  18
MADISON        CLOUDY    34  30  86 N14       29.93R WCI  24
WILLMAR        CLOUDY    30  27  86 NE13      29.93R WCI  20
$$
MNZ033>034-036-042>043-049>051-058-059-251400-
   Central Minnesota

CITY           SKY/WX    TMP DP  RH WIND       PRES   REMARKS
ST CLOUD       CLOUDY    22  15  75 E5        29.94R WCI  16
SAUK CENTRE    CLOUDY    25  20  83 NE9       29.93R WCI  15
PAYNESVILLE    CLOUDY    23  20  89 N7        29.93R WCI  15
AITKIN         CLOUDY    21  14  73 E6        29.94R WCI  14
PINE RIVER     CLOUDY    21  16  79 E7        29.97R WCI  13
BRAINERD       CLOUDY    20  13  74 E6        29.95R WCI  12
STAPLES        CLOUDY    23  18  80 E3        29.93R
LONG PRAIRIE   CLOUDY    25  19  80 NE7       29.92R WCI  17
LITTLE FALLS   PTCLDY    21  14  73 CALM      29.95R
LITCHFIELD     MOCLDY    27  25  93 NE8       29.92R WCI  18
BUFFALO        PTCLDY    22  17  80 NE9       29.95R WCI  12
MAPLE LAKE     CLOUDY    25  21  84 NE8       29.94R WCI  16
$$
MNZ037-044-045-052-053-251400-
   East Central Minnesota

CITY           SKY/WX    TMP DP  RH WIND       PRES   REMARKS
PRINCETON      CLOUDY    21  14  73 NE13      29.95R WCI   9
MORA           MOCLDY    18  10  73 NE6       29.97R WCI   9
CAMBRIDGE      CLOUDY    21  12  68 NE10      29.94R WCI  10
RUSH CITY      PTCLDY    19  12  73 NE13      29.96R WCI   7
MOOSE LAKE     CLOUDY    21  14  73 E3        29.95R
HINCKLEY       CLOUDY    21  14  73 NE7       29.96R WCI  13
CLOQUET        FLURRIES  18  14  86 NE9       29.95R WCI   6
MCGREGOR       CLOUDY    19  14  79 E6        29.95S WCI  11
$$
MNZ071>073-080-081-089-090-097-098-251400-
   Southwest Minnesota

CITY           SKY/WX    TMP DP  RH WIND       PRES   REMARKS
MONTEVIDEO     CLOUDY    32  30  93 E6        29.93R WCI  26
GRANITE FALLS  CLOUDY    32  30  92 N8        29.93R WCI  25
CANBY          LGT SNOW  31  30  96 CALM      29.94R
MARSHALL       CLOUDY    32  28  86 N12       29.92R WCI  23
REDWOOD FALLS  CLOUDY    30  25  81 NE8       29.91R WCI  22
OLIVIA         CLOUDY    28  27  93 NE13      29.91R WCI  18
PIPESTONE      CLOUDY    32  30  93 N12       29.87R FOG     WCI  23
WINDOM         CLOUDY    30  28  93 N12       29.86R WCI  21
WORTHINGTON    CLOUDY    30  28  93 N20       29.86R WCI  18
JACKSON        CLOUDY    32  30  93 N14       29.85R WCI  22
TRACY          CLOUDY    32  31  96 N12       29.89R WCI  23
SLAYTON        CLOUDY    30  30  98 N14       29.87R WCI  20
$$
MNZ065>067-074>077-082>085-091>093-251400-
   South Central Minnesota

CITY           SKY/WX    TMP DP  RH WIND       PRES   REMARKS
MANKATO        MOCLDY    28  21  74 NE16      29.87R WCI  17
NEW ULM        CLOUDY    27  23  86 N14       29.89R WCI  15
ST JAMES       CLOUDY    30  28  93 N13       29.88R WCI  20
FAIRMONT       CLOUDY    30  27  86 N16G22    29.83R WCI  19
GLENCOE        MOCLDY    25  20  83 N13G20    29.91R WCI  13
FARIBAULT      CLOUDY    28  21  74 N14G20    29.87R WCI  17
OWATONNA       CLOUDY    28  25  86 N13       29.85R WCI  18
WASECA         CLOUDY    30  27  86 N20       29.86R WCI  18
ALBERT LEA     CLOUDY    30  28  93 N15G21    29.81R WCI  19
$$
MNZ078>079-086>088-094>096-251400-
   Southeast Minnesota

CITY           SKY/WX    TMP DP  RH WIND       PRES   REMARKS
ROCHESTER      CLOUDY    30  27  88 NE16      29.81R WCI  19
RED WING       CLOUDY    27  19  74 NE7G16    29.89R WCI  19
STANTON        CLOUDY    28  22  78 NE16      29.87R WCI  16
DODGE CENTER   CLOUDY    28  25  86 NE13G25   29.82R WCI  18
WINONA         CLOUDY    32  28  86 E6        29.86R WCI  26
AUSTIN         CLOUDY    30  28  93 NE13G18   29.79R WCI  20
PRESTON        CLOUDY    28  25  87 NE15G21   29.80R WCI  16
$$
ABBREVIATIONS USED IN REMARKS
   TC - TEMPERATURES IN CELSIUS
  WCI - WIND CHILL INDEX
   HX - HEAT INDEX
  VSB - VISIBILITY
$$


USA.gov is the U.S. government's official web portal to all federal, state and local government web resources and services.